Location: Peterborough
(44.3091°N, 78.3197°W)
Time: 06:40:13
(UTC-04:00)

Vanguard 3 - Pass Details

Date: 02 March 2024
Orbit: 510 x 3234 km, 33.3° (Epoch: 24 April)

Event Time Altitude Azimuth Distance (km) Brightness Sun altitude
Rises 00:58:57 0° 278° (W) 7,203 12.0 -52.0°
Reaches altitude 10° 01:04:40 10° 271° (W) 6,102 11.4 -51.7°
Enters shadow 01:06:03 13° 269° (W) 5,841 11.3 -51.6°
